Location: Omaha
(41.2590°N, 95.9380°W)
Time: 02:17:40
(UTC-06:00)

OTV 5 (USA 277) - Pass Details

Date: 13 October 2017
Orbit: 404 x 417 km, 43.0° (Epoch: 07 September)

Event Time Altitude Azimuth Distance (km) Brightness Sun altitude
Rises 20:57:22 0° 274° (W) 2,354 ? -25.5°
Reaches altitude 10° 20:59:29 10° 278° (W) 1,491 ? -25.9°
Enters shadow 21:01:14 27° 287° (WNW) 828 ? -26.2°
